NKS1187 KFLL-KSRQ

Flight info

Callsign NKS1187
Flight time 0h 35m
Altitude 20000
Route BNICE2 COREA TUBBA CURSD
Aircraft A320/M-SDE3FGHIRWY/LB1

Departure

Time 2026-05-03 20:23
Airport Fort Lauderdale Hollywood International Airport (KFLL)

Arrival

Time 2026-05-03 20:58
Airport Sarasota Bradenton International Airport (KSRQ)
Time Latitude Longitude Altitude Speed Heading
2026-05-03 20:15 26.07196 -80.14742 22 ft 0 kts 224°
2026-05-03 20:16 26.07194 -80.14744 23 ft 3 kts 227°
2026-05-03 20:16 26.07149 -80.14825 21 ft 16 kts 236°
2026-05-03 20:16 26.07140 -80.14917 22 ft 13 kts 306°
2026-05-03 20:16 26.07160 -80.15002 24 ft 13 kts 236°
2026-05-03 20:17 26.07172 -80.15090 21 ft 14 kts 315°
2026-05-03 20:17 26.07268 -80.15129 20 ft 17 kts
2026-05-03 20:17 26.07396 -80.15126 20 ft 19 kts
2026-05-03 20:17 26.07488 -80.15165 20 ft 16 kts 288°
2026-05-03 20:18 26.07491 -80.15303 16 ft 20 kts 271°
2026-05-03 20:18 26.07492 -80.15464 17 ft 21 kts 270°
2026-05-03 20:18 26.07493 -80.15634 19 ft 23 kts 270°
2026-05-03 20:18 26.07494 -80.15817 20 ft 25 kts 270°
2026-05-03 20:19 26.07494 -80.16009 24 ft 25 kts 270°
2026-05-03 20:19 26.07495 -80.16206 25 ft 27 kts 270°
2026-05-03 20:19 26.07496 -80.16421 25 ft 27 kts 270°
2026-05-03 20:19 26.07498 -80.16584 24 ft 20 kts 272°
2026-05-03 20:20 26.07565 -80.16644 25 ft 6 kts
2026-05-03 20:20 26.07570 -80.16644 24 ft 0 kts
2026-05-03 20:20 26.07574 -80.16644 20 ft 3 kts
2026-05-03 20:20 26.07667 -80.16638 20 ft 17 kts 18°
2026-05-03 20:21 26.07695 -80.16571 22 ft 0 kts 90°
2026-05-03 20:22 26.07695 -80.16537 24 ft 24 kts 91°
2026-05-03 20:22 26.07693 -80.16070 24 ft 94 kts 91°
2026-05-03 20:22 26.07688 -80.15135 17 ft 145 kts 90°
2026-05-03 20:22 26.07697 -80.13960 388 ft 153 kts 85°
2026-05-03 20:23 26.07730 -80.12788 970 ft 152 kts 85°
2026-05-03 20:23 26.07767 -80.11610 1478 ft 154 kts 85°
2026-05-03 20:23 26.07904 -80.10425 1839 ft 159 kts 68°
2026-05-03 20:23 26.08272 -80.09180 1951 ft 184 kts 71°
2026-05-03 20:24 26.08852 -80.07807 2140 ft 208 kts 51°
2026-05-03 20:24 26.09994 -80.06762 2370 ft 227 kts 21°
2026-05-03 20:24 26.11549 -80.06123 2746 ft 250 kts 17°
2026-05-03 20:24 26.13254 -80.05448 3332 ft 267 kts 18°
2026-05-03 20:25 26.15067 -80.04878 3869 ft 273 kts
2026-05-03 20:25 26.16907 -80.05107 4007 ft 265 kts 338°
2026-05-03 20:25 26.18639 -80.05806 4039 ft 263 kts 337°
2026-05-03 20:25 26.20353 -80.06531 4050 ft 266 kts 329°
2026-05-03 20:26 26.21898 -80.07712 4045 ft 273 kts 315°
2026-05-03 20:26 26.23048 -80.09372 4577 ft 272 kts 297°
2026-05-03 20:26 26.23781 -80.11301 5903 ft 268 kts 290°
2026-05-03 20:26 26.24469 -80.13218 7094 ft 265 kts 290°
2026-05-03 20:27 26.25159 -80.15124 8022 ft 266 kts 288°
2026-05-03 20:27 26.25627 -80.17113 8854 ft 267 kts 277°
2026-05-03 20:27 26.25924 -80.19160 9706 ft 269 kts 277°
2026-05-03 20:27 26.26219 -80.21232 10376 ft 278 kts 277°
2026-05-03 20:28 26.26531 -80.23454 10688 ft 302 kts 277°
2026-05-03 20:28 26.26862 -80.25821 10947 ft 322 kts 277°
2026-05-03 20:28 26.27215 -80.28328 11475 ft 330 kts 277°
2026-05-03 20:28 26.27576 -80.30870 12119 ft 335 kts 277°
2026-05-03 20:29 26.27943 -80.33443 12790 ft 338 kts 277°
2026-05-03 20:29 26.28316 -80.36048 13444 ft 341 kts 277°
2026-05-03 20:29 26.28692 -80.38671 14068 ft 344 kts 277°
2026-05-03 20:29 26.29072 -80.41319 14653 ft 347 kts 277°
2026-05-03 20:30 26.29451 -80.43985 15243 ft 349 kts 277°
2026-05-03 20:30 26.29828 -80.46663 15830 ft 351 kts 277°
2026-05-03 20:30 26.30206 -80.49361 16425 ft 353 kts 277°
2026-05-03 20:30 26.30587 -80.52074 17028 ft 355 kts 277°
2026-05-03 20:31 26.30972 -80.54798 17632 ft 357 kts 276°
2026-05-03 20:31 26.31362 -80.57543 18264 ft 359 kts 276°
2026-05-03 20:31 26.31752 -80.60304 18807 ft 362 kts 276°
2026-05-03 20:31 26.32141 -80.63081 19366 ft 364 kts 276°
2026-05-03 20:32 26.32529 -80.65870 19861 ft 366 kts 276°
2026-05-03 20:32 26.32920 -80.68681 20019 ft 366 kts 276°
2026-05-03 20:32 26.33316 -80.71525 20074 ft 380 kts 276°
2026-05-03 20:32 26.33728 -80.74491 20077 ft 393 kts 276°
2026-05-03 20:33 26.34150 -80.77525 20080 ft 397 kts 276°
2026-05-03 20:33 26.34575 -80.80577 20077 ft 398 kts 276°
2026-05-03 20:33 26.34998 -80.83625 20078 ft 399 kts 276°
2026-05-03 20:33 26.35420 -80.86680 20082 ft 399 kts 276°
2026-05-03 20:34 26.35998 -80.89713 20078 ft 402 kts 284°
2026-05-03 20:34 26.37101 -80.92590 20090 ft 407 kts 295°
2026-05-03 20:34 26.38732 -80.95196 20088 ft 414 kts 306°
2026-05-03 20:34 26.40793 -80.97471 20087 ft 418 kts 311°
2026-05-03 20:35 26.42921 -80.99691 20084 ft 418 kts 311°
2026-05-03 20:35 26.45042 -81.01908 20083 ft 418 kts 311°
2026-05-03 20:35 26.47166 -81.04132 20085 ft 418 kts 311°
2026-05-03 20:35 26.49287 -81.06357 20089 ft 418 kts 311°
2026-05-03 20:36 26.51400 -81.08582 20091 ft 418 kts 311°
2026-05-03 20:36 26.53514 -81.10812 20088 ft 418 kts 311°
2026-05-03 20:36 26.55624 -81.13040 20088 ft 418 kts 311°
2026-05-03 20:36 26.57730 -81.15266 20086 ft 417 kts 311°
2026-05-03 20:37 26.59840 -81.17495 20110 ft 417 kts 311°
2026-05-03 20:37 26.61953 -81.19727 20099 ft 418 kts 311°
2026-05-03 20:37 26.64118 -81.21901 20091 ft 422 kts 316°
2026-05-03 20:37 26.66465 -81.23878 20092 ft 423 kts 317°
2026-05-03 20:38 26.68822 -81.25855 20088 ft 423 kts 317°
2026-05-03 20:38 26.71171 -81.27826 20086 ft 423 kts 317°
2026-05-03 20:38 26.73525 -81.29803 20101 ft 423 kts 317°
2026-05-03 20:38 26.75879 -81.31785 20097 ft 423 kts 317°
2026-05-03 20:39 26.78226 -81.33768 20096 ft 423 kts 317°
2026-05-03 20:39 26.80571 -81.35754 20100 ft 423 kts 317°
2026-05-03 20:39 26.82917 -81.37740 20092 ft 423 kts 317°
2026-05-03 20:39 26.85262 -81.39726 20098 ft 423 kts 317°
2026-05-03 20:40 26.87610 -81.41710 20099 ft 423 kts 317°
2026-05-03 20:40 26.89961 -81.43691 20098 ft 423 kts 317°
2026-05-03 20:40 26.92315 -81.45671 20128 ft 423 kts 317°
2026-05-03 20:40 26.94663 -81.47653 20120 ft 422 kts 317°
2026-05-03 20:41 26.97004 -81.49636 20125 ft 422 kts 317°
2026-05-03 20:41 26.99342 -81.51619 20127 ft 421 kts 317°
2026-05-03 20:41 27.01676 -81.53602 20122 ft 421 kts 316°
2026-05-03 20:41 27.04009 -81.55587 20122 ft 421 kts 316°
2026-05-03 20:42 27.06348 -81.57575 20121 ft 422 kts 317°
2026-05-03 20:42 27.08685 -81.59556 20114 ft 421 kts 317°
2026-05-03 20:42 27.10986 -81.61504 19866 ft 407 kts 316°
2026-05-03 20:42 27.13222 -81.63397 18732 ft 401 kts 317°
2026-05-03 20:43 27.15430 -81.65275 17510 ft 396 kts 317°
2026-05-03 20:43 27.17566 -81.67182 16382 ft 387 kts 311°
2026-05-03 20:43 27.19392 -81.69293 15262 ft 380 kts 309°
2026-05-03 20:43 27.21207 -81.71432 14124 ft 376 kts 310°
2026-05-03 20:44 27.23002 -81.73543 12893 ft 372 kts 310°
2026-05-03 20:44 27.24775 -81.75622 11834 ft 364 kts 310°
2026-05-03 20:44 27.26485 -81.77622 11221 ft 345 kts 309°
2026-05-03 20:44 27.28104 -81.79512 10756 ft 325 kts 309°
2026-05-03 20:45 27.29606 -81.81265 10634 ft 298 kts 309°
2026-05-03 20:45 27.31000 -81.82896 10309 ft 283 kts 308°
2026-05-03 20:45 27.32336 -81.84475 9993 ft 275 kts 308°
2026-05-03 20:45 27.33658 -81.86044 9870 ft 277 kts 308°
2026-05-03 20:46 27.34985 -81.87616 9731 ft 277 kts 308°
2026-05-03 20:46 27.36318 -81.89192 9614 ft 277 kts 308°
2026-05-03 20:46 27.37646 -81.90759 9487 ft 276 kts 309°
2026-05-03 20:46 27.38859 -81.92407 9347 ft 270 kts 295°
2026-05-03 20:47 27.39349 -81.94385 9079 ft 261 kts 268°
2026-05-03 20:47 27.39053 -81.96385 8799 ft 261 kts 255°
2026-05-03 20:47 27.38558 -81.98350 8584 ft 259 kts 253°
2026-05-03 20:47 27.38064 -82.00236 8451 ft 243 kts 253°
2026-05-03 20:48 27.37599 -82.02005 8321 ft 229 kts 253°
2026-05-03 20:48 27.37163 -82.03672 8204 ft 215 kts 253°
2026-05-03 20:48 27.36752 -82.05234 8081 ft 203 kts 253°
2026-05-03 20:48 27.36365 -82.06708 7952 ft 190 kts 253°
2026-05-03 20:49 27.35999 -82.08105 7686 ft 184 kts 253°
2026-05-03 20:49 27.35639 -82.09491 7451 ft 184 kts 253°
2026-05-03 20:49 27.35287 -82.10867 7201 ft 183 kts 253°
2026-05-03 20:49 27.34932 -82.12247 6912 ft 184 kts 253°
2026-05-03 20:50 27.34578 -82.13629 6638 ft 184 kts 254°
2026-05-03 20:50 27.34220 -82.15014 6349 ft 184 kts 253°
2026-05-03 20:50 27.33863 -82.16394 6036 ft 184 kts 253°
2026-05-03 20:50 27.33506 -82.17762 5717 ft 185 kts 253°
2026-05-03 20:51 27.33137 -82.19161 5415 ft 186 kts 254°
2026-05-03 20:51 27.32758 -82.20553 5139 ft 186 kts 253°
2026-05-03 20:51 27.32380 -82.21933 4906 ft 183 kts 254°
2026-05-03 20:51 27.32000 -82.23301 4573 ft 185 kts 254°
2026-05-03 20:52 27.31615 -82.24698 4237 ft 188 kts 253°
2026-05-03 20:52 27.31228 -82.26115 3909 ft 191 kts 253°
2026-05-03 20:52 27.30843 -82.27557 3586 ft 194 kts 253°
2026-05-03 20:52 27.30457 -82.29025 3241 ft 198 kts 254°
2026-05-03 20:53 27.30058 -82.30534 3043 ft 202 kts 254°
2026-05-03 20:53 27.29647 -82.32054 3038 ft 205 kts 254°
2026-05-03 20:53 27.29229 -82.33601 3035 ft 207 kts 254°
2026-05-03 20:53 27.29032 -82.35180 3026 ft 204 kts 278°
2026-05-03 20:54 27.29221 -82.36761 3041 ft 203 kts 281°
2026-05-03 20:54 27.29772 -82.39834 3034 ft 199 kts 283°
2026-05-03 20:54 27.30062 -82.41357 3027 ft 200 kts 283°
2026-05-03 20:55 27.30362 -82.42883 3030 ft 200 kts 284°
2026-05-03 20:55 27.30655 -82.44408 2905 ft 201 kts 284°
2026-05-03 20:55 27.31147 -82.45855 2619 ft 196 kts 310°
2026-05-03 20:55 27.32054 -82.46971 2308 ft 195 kts 317°
2026-05-03 20:56 27.32942 -82.48068 1991 ft 181 kts 319°
2026-05-03 20:56 27.33781 -82.49027 1775 ft 159 kts 320°
2026-05-03 20:56 27.34520 -82.49839 1513 ft 141 kts 322°
2026-05-03 20:56 27.35209 -82.50582 1207 ft 133 kts 319°
2026-05-03 20:57 27.35892 -82.51359 1024 ft 148 kts 318°
2026-05-03 20:57 27.36382 -82.51911 932 ft 152 kts 320°
2026-05-03 20:57 27.37113 -82.52776 702 ft 153 kts 320°
2026-05-03 20:57 27.37884 -82.53624 425 ft 155 kts 318°
2026-05-03 20:58 27.38619 -82.54474 147 ft 147 kts 320°
2026-05-03 20:58 27.39263 -82.55199 30 ft 85 kts 314°
2026-05-03 20:58 27.39476 -82.55435 33 ft 15 kts 315°
2026-05-03 20:58 27.39498 -82.55550 36 ft 16 kts 270°
2026-05-03 20:59 27.39498 -82.55590 37 ft 0 kts 270°